GFSMA_500_spd_141.txt.gz
Wind_Speed
47 44 44 47 48 48 46 47 45 45 39 41 42 44 49 45 40 35 28 28 21 17 16 19 29 29 27 27 28 27 26 23 21 19 18 18 17 15 15 15 15 17 23
53 51 50 51 54 54 54 52 51 50 49 50 53 52 38 42 42 39 32 26 22 18 22 23 20 29 32 29 29 30 30 28 25 23 19 19 19 19 18 16 17 19 19
48 48 52 56 57 56 56 56 54 52 54 55 58 59 52 44 31 30 30 27 27 22 17 23 19 19 27 37 40 32 32 31 29 27 24 22 20 22 22 20 19 20 20
43 43 46 47 48 50 52 52 54 55 56 59 58 60 55 46 44 41 38 36 25 23 19 20 26 28 27 30 33 36 33 34 33 31 28 27 25 23 23 23 22 21 20
46 47 47 48 48 48 51 55 62 61 61 60 61 62 62 57 49 48 45 44 36 28 30 28 28 29 30 25 29 36 36 34 33 33 34 31 29 27 26 24 24 24 21
50 51 52 53 54 54 54 54 56 60 62 64 62 60 61 60 55 51 44 45 42 41 36 35 36 31 29 29 22 24 28 30 31 38 40 38 34 32 29 28 26 25 26
52 53 55 55 56 57 58 59 61 62 64 65 65 61 59 60 61 56 52 48 45 44 43 42 40 37 36 33 27 27 29 30 31 33 30 40 40 37 35 32 30 27 27
52 52 54 55 57 59 61 62 63 66 69 72 71 67 63 62 63 63 58 54 51 49 48 47 45 43 40 40 39 41 37 35 35 35 36 36 39 44 41 39 35 33 29
47 50 52 53 55 57 59 61 63 66 67 71 74 73 70 70 63 60 63 63 60 55 52 51 50 49 48 45 44 43 39 40 40 38 37 41 42 44 46 43 41 37 34
48 49 50 51 54 56 57 59 61 63 64 65 71 73 71 68 68 67 63 66 68 67 60 55 54 53 51 50 49 48 45 44 43 41 38 43 43 47 49 48 46 45 40
49 51 53 55 56 57 57 57 59 60 62 64 68 71 68 66 62 65 63 59 62 67 68 61 57 56 56 55 55 52 52 48 45 42 47 44 42 43 48 50 50 49 44
52 53 53 53 53 55 55 54 56 58 60 61 63 63 63 62 61 62 60 56 58 58 62 65 64 58 59 63 61 59 56 52 50 50 43 43 38 45 48 48 50 51 52
51 52 52 51 50 48 48 50 52 53 55 56 55 58 58 56 58 59 61 57 52 55 58 54 54 58 58 64 67 65 62 59 57 54 49 43 42 49 46 46 42 43 50
51 49 48 48 46 46 46 48 48 50 53 54 59 56 55 57 57 58 56 55 54 48 51 53 53 54 60 65 69 69 67 65 60 56 53 46 46 46 46 43 43 44 42
50 45 43 43 43 45 46 44 45 48 47 42 44 47 51 55 53 52 52 53 45 37 39 45 53 56 59 61 68 70 74 69 66 59 55 52 52 38 42 41 46 46 52
46 40 39 40 40 40 41 38 39 40 43 45 43 45 48 48 49 45 47 47 44 40 37 41 48 51 55 57 64 66 68 71 70 65 59 56 54 55 51 45 43 45 49
40 34 33 34 35 35 35 37 39 41 40 40 41 45 46 44 46 46 44 45 45 40 33 31 36 41 45 55 66 69 69 69 69 67 62 56 59 58 55 54 52 48 50
35 32 31 31 30 30 31 34 35 37 38 39 42 43 43 42 44 45 45 43 43 44 45 38 35 37 37 40 48 52 61 68 68 67 62 53 53 55 58 60 55 54 55
36 34 35 33 31 28 26 25 26 28 33 35 38 40 43 44 46 50 49 49 48 46 46 45 42 42 41 42 44 51 54 55 63 66 67 73 46 53 62 62 60 57 56
33 32 33 33 31 30 27 25 26 27 29 31 34 36 39 43 47 50 53 51 50 51 51 48 48 48 49 48 47 48 50 53 52 57 68 77 59 55 54 64 60 61 58
31 30 30 29 28 27 26 27 29 31 31 32 35 33 31 33 38 43 50 52 51 51 52 51 48 48 46 50 53 54 54 52 52 51 56 67 73 75 45 38 62 61 56
35 32 30 26 26 24 25 24 26 32 34 33 31 33 33 36 36 33 35 43 44 45 46 48 48 48 47 45 47 48 54 57 55 54 51 58 67 71 76 52 44 50 56
38 33 29 26 24 23 22 18 21 23 31 26 26 22 23 25 26 26 22 19 24 33 40 43 46 46 47 51 53 51 52 55 55 57 57 56 60 65 67 74 56 53 54
34 31 27 25 22 21 17 16 18 18 20 10 9 9 12 10 16 19 19 17 12 14 20 26 35 41 42 47 51 54 55 57 55 52 56 62 60 63 66 70 71 63 55
25 23 25 21 18 16 16 15 17 17 13 4 8 8 12 16 18 23 26 18 14 10 12 16 19 22 31 35 42 45 50 58 59 57 53 53 59 61 65 68 71 65 62
27 21 19 14 14 14 14 15 14 16 10 6 5 6 10 14 17 20 23 27 25 12 10 13 16 22 24 26 33 42 52 51 59 60 55 52 56 61 63 67 67 64 62

GFSMA_500_spd_144.txt.gz
Wind_Speed
53 53 52 51 50 51 51 48 48 49 49 50 49 54 55 41 35 32 36 44 37 33 28 20 22 30 30 29 26 26 24 23 23 21 19 17 18 17 15 15 12 13 13
47 49 47 45 47 51 55 53 51 52 54 55 55 51 51 48 46 45 43 30 38 35 32 25 21 20 21 32 32 29 27 26 24 25 24 21 20 20 19 16 17 17 15
44 42 46 45 45 46 50 53 52 53 54 55 55 57 52 46 43 40 40 36 38 35 35 30 28 22 21 21 25 34 33 31 29 28 28 26 24 22 22 21 19 18 20
50 45 42 42 43 44 46 48 50 52 52 52 55 57 56 51 47 42 41 42 38 38 25 31 26 23 25 24 23 23 32 38 38 32 30 30 29 26 24 24 23 22 21
51 50 49 48 47 47 47 49 51 53 53 54 55 58 61 60 55 50 45 47 42 35 34 22 31 31 31 28 27 29 30 31 37 39 34 33 32 30 28 27 27 26 24
53 54 53 53 52 52 53 54 55 57 58 59 60 59 60 57 59 55 49 48 47 46 36 34 30 31 40 33 28 27 30 36 30 41 41 37 35 35 33 32 30 30 28
56 56 56 56 56 55 55 56 56 57 59 60 62 62 62 60 56 56 55 51 49 48 46 44 38 38 38 40 37 34 34 33 30 39 43 42 44 42 40 37 36 34 33
54 54 55 56 56 56 56 57 58 58 60 61 62 63 64 66 61 59 58 58 55 51 52 51 49 48 46 47 45 41 40 37 33 31 36 38 39 38 42 43 41 39 37
52 52 53 53 53 53 54 55 56 57 58 61 63 65 66 66 65 63 59 60 63 62 56 56 56 55 54 51 50 48 44 42 42 40 40 44 40 40 40 41 45 45 42
50 50 50 51 51 52 53 54 55 57 59 61 64 65 67 68 68 65 63 62 59 61 61 58 56 57 58 56 55 54 52 49 48 48 45 47 46 46 46 45 44 45 48
50 51 51 52 53 55 56 57 59 62 63 65 67 68 69 68 69 68 65 61 62 62 61 61 63 62 60 61 61 58 59 57 54 53 51 51 50 50 50 46 43 43 47
50 52 53 54 55 56 57 58 59 60 62 64 66 65 63 63 65 66 65 60 56 54 57 58 61 62 62 63 62 63 62 63 62 59 56 54 52 51 54 52 43 48 44
52 53 54 55 57 59 58 56 54 55 56 56 56 57 59 61 63 65 64 59 53 48 47 48 52 55 61 64 66 67 65 66 66 66 62 60 57 55 57 51 47 46 53
53 55 57 58 55 53 54 51 52 51 49 50 53 55 55 54 56 57 56 54 49 44 46 49 52 56 59 63 67 69 69 73 71 70 67 64 64 59 57 55 52 47 46
52 53 52 54 52 54 49 49 47 46 45 47 47 45 47 48 45 45 50 50 49 49 49 47 50 55 62 65 68 66 69 73 77 77 74 68 68 67 61 59 58 54 46
49 51 49 50 50 45 44 41 39 39 42 42 41 41 42 44 45 44 41 44 46 46 39 42 44 49 55 61 65 67 71 71 71 77 78 75 71 70 68 65 59 54 58
46 48 47 46 42 39 37 35 33 34 36 38 40 42 43 41 40 37 37 40 40 43 40 41 40 43 49 55 58 66 71 70 68 70 70 73 76 73 70 70 65 59 45
45 48 49 44 41 39 38 35 32 31 32 32 35 39 38 40 41 41 41 39 39 38 43 39 38 41 42 47 53 57 68 72 71 71 70 68 68 71 72 71 65 60 58
47 46 45 40 37 37 37 34 32 28 25 26 27 32 34 36 38 41 43 45 45 43 45 42 41 42 43 43 41 48 56 62 66 69 65 62 64 67 69 72 70 62 61
43 41 37 35 33 33 35 32 30 26 25 24 26 28 29 29 30 31 34 42 48 51 51 50 49 45 45 45 45 44 45 50 56 62 58 57 55 59 68 70 71 63 66
37 37 37 36 33 31 31 28 26 25 24 25 26 28 31 32 31 28 32 36 41 48 50 53 53 52 49 49 49 48 49 50 48 50 52 54 55 53 56 69 69 75 64
35 36 37 36 36 33 30 25 23 22 21 22 23 27 29 31 32 35 35 37 30 30 38 48 51 52 53 52 50 50 51 51 53 52 52 52 52 55 54 59 75 76 79
33 34 36 36 34 32 29 24 23 20 16 18 19 21 22 17 18 19 20 23 21 17 15 22 35 43 45 50 50 49 51 51 52 56 58 58 57 53 53 52 65 62 69
35 34 35 36 32 28 25 24 22 18 18 17 18 17 13 9 7 8 13 17 15 18 18 12 14 22 32 37 42 47 50 52 51 50 54 54 56 57 55 55 54 56 62
33 33 31 26 25 26 23 19 17 19 19 19 19 16 14 7 6 6 10 14 17 19 13 13 11 9 12 20 31 37 39 41 42 51 57 56 53 56 57 57 58 60 61
30 26 23 23 23 22 18 17 19 19 19 20 19 13 11 9 8 8 10 13 15 16 17 16 15 14 11 16 18 19 28 35 41 45 48 57 59 57 59 55 55 60 63

GFSMA_500_spd_147.txt.gz
Wind_Speed
46 46 47 47 48 51 52 52 53 53 54 53 54 50 50 53 51 50 35 34 34 32 40 48 40 34 34 38 34 31 30 30 29 26 23 20 18 17 16 14 15 12 14
47 45 43 42 43 45 49 50 49 50 52 55 56 56 53 52 49 44 37 34 30 33 40 37 46 38 35 35 37 35 32 33 32 30 29 25 22 20 19 18 16 17 18
45 45 45 45 45 45 46 50 53 51 50 51 53 55 55 55 51 44 38 35 34 35 34 39 31 43 34 27 24 25 31 37 34 34 32 30 27 25 23 21 20 19 20
46 48 48 47 48 47 47 49 51 53 52 51 49 51 51 52 52 49 44 42 42 38 38 36 38 42 37 36 25 23 20 25 36 39 36 34 33 30 29 26 24 22 22
51 52 53 53 52 52 51 51 52 54 55 56 55 52 52 54 53 50 47 43 41 41 41 38 31 34 33 30 26 25 28 29 30 33 39 41 38 36 33 31 29 27 25
53 54 55 56 57 56 56 56 57 57 57 57 59 59 56 55 55 53 50 47 44 40 41 42 38 38 39 32 34 37 30 30 26 28 32 38 42 41 39 36 33 32 30
51 52 54 57 59 59 59 59 58 59 59 58 59 59 59 57 53 53 49 47 45 44 43 44 44 40 39 37 42 49 36 36 31 32 34 27 44 44 41 39 38 36 35
49 48 51 54 57 60 61 60 60 58 58 59 59 59 57 58 57 53 52 49 50 50 49 49 49 47 45 44 44 45 46 47 36 39 39 34 31 44 41 41 40 38 40
47 49 51 54 55 57 59 60 60 59 57 57 57 58 58 58 58 59 56 54 50 51 53 52 53 53 53 52 52 53 52 50 42 45 43 39 34 39 39 44 45 44 46
47 48 50 52 53 55 55 58 59 59 60 60 60 59 59 60 61 61 62 60 58 54 56 58 56 57 58 58 59 58 58 54 52 53 48 45 39 46 42 41 44 43 40
45 46 47 49 49 49 50 53 56 57 59 62 63 64 65 65 67 66 65 64 63 62 60 60 60 60 61 61 62 64 63 61 58 56 57 49 50 49 47 48 45 48 47
43 44 45 48 50 52 51 52 54 55 56 58 59 61 63 66 66 66 67 64 62 59 60 58 60 61 62 66 66 65 64 65 64 62 61 62 60 55 53 53 51 50 51
45 46 45 46 48 50 52 53 56 58 58 57 55 55 55 58 60 62 62 60 57 55 55 55 57 58 62 63 65 68 68 66 68 70 70 68 66 64 60 56 54 56 53
46 44 45 48 48 50 53 53 53 49 52 54 51 50 52 53 54 56 56 57 56 58 56 56 55 59 60 58 61 63 65 69 69 70 75 74 72 70 68 64 60 57 54
45 44 44 47 46 53 54 51 48 50 49 47 47 48 49 48 49 49 52 50 52 53 52 51 53 56 57 56 55 56 59 61 66 69 74 79 78 76 75 71 65 62 57
45 48 45 46 48 53 51 50 44 44 45 41 40 40 41 42 43 42 44 43 43 43 44 47 51 52 55 56 57 59 61 62 64 67 72 80 83 82 80 78 73 67 64
43 44 42 43 48 47 49 49 42 42 41 40 36 35 36 37 39 42 43 46 46 44 44 43 44 49 52 53 55 54 57 61 64 68 71 73 84 87 84 80 77 74 71
46 48 47 45 47 48 44 45 40 40 39 39 37 37 34 34 37 38 41 43 43 40 37 40 44 49 49 50 47 49 52 57 61 62 64 69 74 83 81 74 75 78 77
45 44 43 42 43 42 39 38 38 36 36 35 36 35 33 33 33 32 34 36 40 41 41 38 39 42 47 46 49 51 54 53 56 58 60 63 62 76 74 69 67 73 76
44 41 39 38 38 38 35 36 35 34 33 32 31 29 27 26 27 29 28 27 30 36 40 44 44 45 47 50 49 47 50 49 49 52 57 58 63 70 77 71 66 68 70
39 38 36 35 35 37 34 35 34 33 30 30 26 25 23 23 25 27 31 30 26 27 32 35 44 50 53 53 54 52 50 51 50 51 53 56 59 61 69 71 69 69 68
37 36 36 33 33 34 33 33 33 34 29 26 24 22 21 20 22 23 23 27 29 26 27 33 31 38 50 55 56 55 53 52 54 54 54 52 52 58 64 67 67 64 62
36 34 31 30 35 34 35 35 35 34 28 26 25 21 19 20 21 18 18 15 15 18 18 18 15 16 20 34 49 51 54 54 57 59 58 56 55 52 54 57 59 59 58
31 29 31 34 33 33 31 33 32 31 30 26 24 21 21 20 22 15 15 13 12 13 14 13 12 13 10 9 19 35 44 47 55 58 60 59 59 60 58 57 56 56 57
29 31 31 29 31 27 28 26 27 27 26 22 22 23 23 21 20 15 13 13 10 10 11 13 16 18 13 6 3 11 23 31 38 51 58 59 61 61 61 61 60 58 58
27 27 27 26 26 24 20 21 22 22 21 21 22 21 23 22 19 19 17 12 8 7 8 9 12 13 14 13 14 10 11 14 24 32 39 48 56 59 60 59 59 59 58

GFSMA_500_spd_150.txt.gz
Wind_Speed
44 44 44 44 43 42 42 42 43 43 43 47 50 52 51 51 51 53 47 43 33 22 27 29 24 30 33 42 39 34 39 37 35 34 31 28 25 23 21 19 18 17 13
43 43 42 41 42 42 42 42 42 45 46 45 46 47 51 51 52 52 48 40 33 26 28 29 28 28 26 38 40 37 39 43 36 35 34 32 31 27 25 23 21 19 17
43 44 46 45 44 44 44 44 44 45 47 48 48 48 48 49 50 50 46 39 36 29 30 31 32 31 29 27 41 38 37 40 41 39 38 34 34 32 30 27 26 23 22
48 50 51 52 53 52 51 49 49 49 50 51 50 50 50 49 49 49 46 40 37 34 33 32 32 35 34 31 29 42 31 29 32 34 42 38 37 34 34 32 30 28 26
53 53 53 55 54 55 55 53 52 51 52 53 54 55 53 53 52 51 49 46 42 39 36 36 33 34 36 29 25 27 43 37 35 33 36 41 38 36 35 36 34 32 29
59 60 59 58 58 56 53 56 56 54 53 54 56 56 57 57 55 53 51 48 45 44 41 39 39 37 37 33 31 37 40 41 36 35 29 31 29 33 36 42 39 37 34
57 56 53 54 52 52 50 52 53 54 53 54 56 57 58 59 58 55 52 49 45 44 44 41 40 41 41 38 40 40 35 34 40 34 34 34 31 32 31 29 43 41 39
48 48 49 47 48 51 52 54 54 56 56 58 57 58 58 59 58 57 54 50 48 46 46 46 45 45 45 44 43 44 43 39 31 38 44 33 32 33 37 35 36 48 43
47 43 44 44 45 49 53 55 55 56 57 59 60 58 58 57 58 58 57 56 52 50 48 46 47 48 48 51 49 50 49 49 47 51 39 49 41 39 37 34 30 45 46
46 40 40 41 41 43 45 48 50 51 51 51 55 57 58 58 58 57 59 58 56 54 53 51 50 51 53 55 55 55 55 53 53 55 55 45 47 37 39 39 37 36 40
44 42 42 44 43 43 43 44 46 47 47 48 50 53 54 54 56 57 57 60 60 60 57 57 57 57 58 59 61 61 60 59 57 59 55 51 52 50 48 47 45 43 45
43 41 45 45 47 45 43 43 44 44 42 44 46 48 50 52 54 56 57 57 59 62 62 61 59 60 62 63 65 66 65 64 64 64 62 58 60 59 55 54 53 50 45
46 47 48 47 50 48 47 46 45 42 40 45 47 48 49 51 53 53 56 54 55 56 60 62 62 61 61 64 66 68 69 69 68 69 70 69 66 66 63 62 60 56 49
46 50 51 50 53 47 47 45 43 40 42 50 54 57 53 50 49 47 48 48 50 51 53 56 57 58 56 57 59 62 67 71 71 71 71 72 73 69 67 66 66 65 60
47 46 48 46 48 46 48 46 44 45 50 46 49 49 48 46 44 42 43 44 45 45 47 50 52 54 56 58 60 62 64 65 69 70 69 70 71 72 72 72 72 71 68
42 35 36 37 37 40 43 43 44 46 45 45 47 48 46 42 39 38 39 39 40 42 44 45 47 49 51 55 59 62 65 66 66 67 69 70 71 73 77 79 79 77 76
35 40 44 48 47 51 48 47 51 53 51 51 47 42 42 41 38 37 37 37 36 38 40 42 45 49 52 53 54 55 59 63 65 65 64 66 66 70 74 79 84 84 82
47 41 42 43 45 49 49 47 49 49 48 42 41 38 38 39 36 37 36 38 39 38 39 42 44 46 47 51 54 56 58 60 61 60 61 61 61 61 64 69 78 83 86
42 44 47 49 48 48 48 46 46 44 40 36 36 35 36 37 35 33 33 32 29 34 38 42 42 45 47 44 50 55 55 57 57 59 60 60 57 57 58 59 62 70 80
45 45 46 48 46 45 46 44 40 38 36 34 34 33 32 32 31 28 27 25 23 22 24 31 39 44 44 45 45 51 54 57 55 56 56 55 54 53 54 56 59 60 66
44 43 45 43 43 42 42 39 36 34 32 31 33 32 30 29 27 25 22 21 23 24 24 26 24 31 37 41 46 45 50 52 57 56 56 56 54 49 49 49 52 56 59
43 43 41 41 40 38 35 32 35 35 35 33 32 33 30 26 26 25 21 20 21 21 20 22 22 26 28 31 38 48 50 52 58 59 58 57 56 55 51 49 49 53 56
45 39 39 38 34 32 33 35 36 35 36 36 34 33 30 28 26 25 22 21 19 18 16 17 16 18 20 20 21 24 35 49 56 60 60 59 58 58 56 53 51 52 54
36 37 34 32 32 33 34 33 35 35 33 33 33 31 31 30 26 25 23 22 18 18 17 12 11 12 9 10 7 11 12 20 36 49 56 59 59 59 59 58 55 52 52
35 31 30 30 30 31 31 30 29 26 25 24 24 25 25 25 25 25 22 21 19 19 15 10 9 10 13 14 12 5 5 8 13 26 38 50 57 59 59 59 58 57 55
29 28 27 28 26 23 20 16 17 19 19 19 20 22 19 21 23 23 23 22 19 18 16 12 10 11 12 12 12 14 17 12 7 11 18 29 41 51 57 60 59 60 60

GFSMA_500_spd_153.txt.gz
Wind_Speed
40 41 42 42 42 40 40 40 39 40 40 41 42 42 43 43 42 43 43 41 38 33 31 30 29 26 28 25 26 30 43 42 38 35 33 32 32 30 28 27 26 25 23
41 42 43 43 43 44 43 44 43 43 44 44 43 43 44 44 43 42 44 43 37 31 30 31 34 33 33 30 30 28 39 45 38 35 38 34 36 35 31 30 29 27 25
44 45 46 47 47 48 49 50 51 50 50 48 49 48 46 46 46 46 45 42 39 34 29 31 33 36 35 33 32 34 28 44 41 36 38 41 37 37 35 32 32 29 27
49 51 53 53 54 54 54 54 52 53 52 54 55 54 51 49 47 47 47 47 41 40 34 33 34 35 37 38 35 36 32 29 44 37 38 44 41 39 39 36 35 33 31
54 57 60 62 63 64 65 65 64 58 56 54 54 56 56 55 51 50 49 50 46 42 40 38 37 37 36 37 34 33 33 30 41 51 40 38 39 42 41 39 38 36 35
59 61 64 67 69 72 71 67 62 62 58 52 47 49 52 58 60 55 53 52 51 46 44 42 41 40 40 38 38 38 34 35 37 44 41 40 39 37 48 44 43 42 38
62 63 65 63 61 61 60 56 48 48 49 47 46 48 56 56 58 60 57 55 53 51 47 45 43 42 41 41 42 42 39 39 41 46 39 44 40 35 39 41 41 43 43
61 59 57 53 50 48 44 41 40 43 48 50 53 55 56 58 59 59 57 54 53 51 50 46 45 45 44 44 45 45 45 43 42 36 36 45 49 45 36 37 33 31 28
53 54 51 47 43 40 38 39 39 42 43 45 46 48 48 48 49 55 53 52 50 50 50 50 49 48 49 49 49 48 49 48 46 44 45 43 49 54 43 41 40 32 32
53 48 43 41 42 47 44 41 42 43 42 40 40 40 41 44 44 42 46 46 47 48 49 51 53 53 53 53 54 52 52 51 52 50 49 48 48 51 48 46 49 43 43
46 46 46 45 43 41 41 41 40 47 46 42 38 36 34 33 33 33 34 40 43 47 48 49 52 55 56 56 58 57 57 58 56 56 57 59 55 54 49 45 45 41 47
50 53 52 49 48 46 49 49 45 49 46 44 41 35 29 32 37 37 37 38 42 45 46 49 50 53 57 59 61 61 61 62 63 63 64 57 58 54 57 55 44 47 40
60 59 53 48 49 53 47 47 48 47 46 43 43 39 36 36 40 41 39 45 44 45 49 51 54 56 57 59 62 64 65 66 68 68 67 65 62 62 59 59 54 54 50
60 58 53 52 48 48 46 44 47 45 48 46 47 44 43 39 38 43 49 49 49 47 47 50 52 55 58 61 62 64 65 66 68 71 71 70 68 67 65 63 64 61 63
50 52 49 47 43 43 40 37 38 38 37 41 40 43 42 43 47 47 50 49 50 49 44 46 49 53 55 58 61 65 67 69 68 69 69 70 72 71 70 69 69 67 67
43 44 46 44 38 38 40 42 44 43 46 46 46 48 51 50 51 52 50 50 46 45 41 40 45 48 52 55 55 58 62 67 66 67 67 65 68 71 72 72 72 73 73
44 44 46 49 50 50 45 43 44 46 49 50 47 48 49 47 47 48 47 46 43 40 39 37 38 42 48 50 52 53 55 58 63 65 67 67 65 66 69 70 72 75 77
44 45 45 47 48 46 45 46 50 51 49 48 46 46 46 43 44 42 40 41 41 39 38 38 39 40 41 46 48 52 53 54 57 60 66 68 69 68 67 67 69 72 76
43 45 46 47 47 46 46 47 48 46 43 42 42 41 40 39 39 37 36 38 37 35 34 33 37 39 40 42 46 49 54 56 55 56 58 60 62 64 64 66 67 68 71
49 46 45 44 43 43 44 44 43 42 40 38 37 37 36 36 36 35 32 31 31 30 28 27 26 29 34 40 41 43 49 56 53 54 56 57 55 55 58 62 62 61 60
44 43 43 44 44 45 42 40 39 39 37 35 34 35 36 35 34 32 31 27 26 24 23 22 22 23 23 25 31 36 39 44 49 50 51 54 56 56 56 56 57 58 59
41 43 44 46 45 39 38 37 35 34 34 35 37 38 37 37 36 33 30 28 26 24 21 19 21 21 22 24 26 25 31 41 45 47 50 54 55 56 58 57 58 57 57
42 45 46 40 37 37 34 32 32 33 35 36 36 37 37 37 37 33 31 30 26 25 22 19 20 18 17 20 21 21 24 27 35 43 51 53 55 53 55 55 56 57 57
42 39 37 36 34 31 31 31 31 31 30 29 30 32 34 36 35 31 32 30 26 24 23 18 19 17 16 12 11 13 14 18 19 21 32 50 56 58 58 58 57 57 57
39 37 36 32 30 30 28 27 23 20 18 21 23 24 24 22 20 22 23 26 26 24 22 17 17 16 14 11 9 10 12 13 9 12 14 23 38 52 61 62 61 60 59
36 35 30 28 29 27 23 18 15 16 20 21 22 23 23 19 20 18 17 24 23 23 16 18 18 16 15 13 11 10 11 11 13 17 11 11 12 23 37 50 57 60 62